| time (UTC) | temp F | wind direction | speed knots | gust knots | rain 1hr in | rain 24hr in | rain mn in | humidity % | barometer mb |
| 20260505080023 | 65 | 247 | 4.3 | 11.3 | 0.00 | 0.00 | 0.00 | 77 | 1005.4 |
| 20260505075930 | 65 | 215 | 4.3 | 11.3 | 0.00 | 0.00 | 0.00 | 77 | 1006.1 |
| 20260505075443 | 65 | 216 | 4.3 | 11.3 | 0.00 | 0.00 | 0.00 | 76 | 1006.3 |
| 20260505074926 | 65 | 256 | 5.2 | 9.6 | 0.00 | 0.00 | 0.00 | 76 | 1006.2 |
| 20260505074527 | 65 | 240 | 5.2 | 9.6 | 0.00 | 0.00 | 0.00 | 76 | 1005.5 |
| 20260505074436 | 65 | 243 | 5.2 | 9.6 | 0.00 | 0.00 | 0.00 | 76 | 1006.3 |
| 20260505073943 | 65 | 207 | 4.3 | 10.4 | 0.00 | 0.00 | 0.00 | 76 | 1006.1 |
| 20260505073454 | 65 | 235 | 6.1 | 16.5 | 0.00 | 0.00 | 0.00 | 75 | 1006.2 |
| 20260505073111 | 65 | 233 | 6.1 | 16.5 | 0.00 | 0.00 | 0.00 | 75 | 1005.3 |
| 20260505072935 | 65 | 243 | 6.1 | 16.5 | 0.00 | 0.00 | 0.00 | 75 | 1006.1 |
| 20260505072445 | 65 | 227 | 5.2 | 11.3 | 0.00 | 0.00 | 0.00 | 74 | 1006.0 |
| 20260505071937 | 66 | 243 | 6.1 | 10.4 | 0.00 | 0.00 | 0.00 | 74 | 1006.1 |
| 20260505071546 | 65 | 237 | 6.1 | 10.4 | 0.00 | 0.00 | 0.00 | 73 | 1005.4 |
| 20260505071446 | 66 | 261 | 7.0 | 10.4 | 0.00 | 0.00 | 0.00 | 73 | 1006.1 |
| 20260505070928 | 66 | 240 | 7.0 | 12.2 | 0.00 | 0.00 | 0.00 | 73 | 1006.3 |
| 20260505070439 | 66 | 238 | 7.8 | 17.4 | 0.00 | 0.00 | 0.00 | 72 | 1006.3 |
| 20260505070049 | 66 | 248 | 7.8 | 17.4 | 0.00 | 0.00 | 0.00 | 72 | 1005.5 |
| 20260505065948 | 66 | 236 | 8.7 | 17.4 | 0.00 | 0.00 | 0.00 | 72 | 1006.4 |
| 20260505065431 | 66 | 241 | 7.0 | 13.0 | 0.00 | 0.00 | 0.00 | 71 | 1006.3 |
| 20260505064943 | 66 | 226 | 8.7 | 12.2 | 0.00 | 0.00 | 0.00 | 71 | 1006.4 |
| 20260505064558 | 66 | 248 | 7.8 | 13.0 | 0.00 | 0.00 | 0.00 | 71 | 1005.6 |
| 20260505064423 | 66 | 248 | 7.8 | 13.0 | 0.00 | 0.00 | 0.00 | 71 | 1006.5 |
| 20260505063935 | 66 | 240 | 7.8 | 13.0 | 0.00 | 0.00 | 0.00 | 71 | 1006.6 |
| 20260505063446 | 66 | 238 | 7.0 | 14.8 | 0.00 | 0.00 | 0.00 | 70 | 1006.7 |
| 20260505063104 | 66 | 230 | 7.8 | 15.6 | 0.00 | 0.00 | 0.00 | 70 | 1006.1 |
| 20260505062927 | 66 | 224 | 7.0 | 15.6 | 0.00 | 0.00 | 0.00 | 70 | 1006.9 |
| 20260505062436 | 66 | 246 | 9.6 | 15.6 | 0.00 | 0.00 | 0.00 | 70 | 1007.0 |
| 20260505061945 | 66 | 237 | 6.1 | 13.0 | 0.00 | 0.00 | 0.00 | 69 | 1006.9 |
| 20260505061512 | 66 | 226 | 6.1 | 13.9 | 0.00 | 0.00 | 0.00 | 69 | 1006.2 |
| 20260505061425 | 66 | 265 | 6.1 | 13.9 | 0.00 | 0.00 | 0.00 | 69 | 1006.9 |
| 20260505060936 | 67 | 212 | 7.0 | 13.9 | 0.00 | 0.00 | 0.00 | 69 | 1006.9 |
| 20260505060448 | 66 | 236 | 6.1 | 13.0 | 0.00 | 0.00 | 0.00 | 68 | 1007.1 |
| 20260505060055 | 66 | 239 | 7.0 | 13.0 | 0.00 | 0.00 | 0.00 | 68 | 1006.4 |
| 20260505055926 | 66 | 253 | 6.1 | 12.2 | 0.00 | 0.00 | 0.00 | 68 | 1007.1 |
| 20260505055438 | 66 | 252 | 7.0 | 13.9 | 0.00 | 0.00 | 0.00 | 68 | 1007.2 |
| 20260505054948 | 66 | 240 | 6.1 | 13.9 | 0.00 | 0.00 | 0.00 | 68 | 1007.2 |
| 20260505054628 | 66 | 219 | 6.1 | 11.3 | 0.00 | 0.00 | 0.00 | 67 | 1006.5 |
| 20260505054458 | 67 | 174 | 6.1 | 11.3 | 0.00 | 0.00 | 0.00 | 67 | 1007.3 |
| 20260505053939 | 66 | 232 | 6.1 | 11.3 | 0.00 | 0.00 | 0.00 | 67 | 1007.3 |
| 20260505053431 | 67 | 251 | 5.2 | 11.3 | 0.00 | 0.00 | 0.00 | 67 | 1007.4 |
| 20260505053059 | 66 | 243 | 6.1 | 14.8 | 0.00 | 0.00 | 0.00 | 67 | 1006.8 |
| 20260505052930 | 66 | 225 | 6.1 | 14.8 | 0.00 | 0.00 | 0.00 | 67 | 1007.6 |
| 20260505052510 | 67 | 235 | 6.1 | 14.8 | 0.00 | 0.00 | 0.00 | 66 | 1007.6 |
| 20260505051931 | 66 | 250 | 6.1 | 11.3 | 0.00 | 0.00 | 0.00 | 67 | 1007.5 |
| 20260505051533 | 66 | 236 | 4.3 | 9.6 | 0.00 | 0.00 | 0.00 | 66 | 1006.7 |
| 20260505051439 | 67 | 237 | 5.2 | 9.6 | 0.00 | 0.00 | 0.00 | 66 | 1007.5 |
| 20260505050922 | 66 | 240 | 5.2 | 13.0 | 0.00 | 0.00 | 0.00 | 67 | 1007.5 |
| 20260505050433 | 66 | 225 | 6.1 | 13.0 | 0.00 | 0.00 | 0.00 | 66 | 1007.8 |
| 20260505041541 | 67 | 231 | 3.5 | 11.3 | 0.00 | 0.00 | 0.00 | 66 | 1007.3 |
| 20260505041421 | 67 | 240 | 4.3 | 11.3 | 0.00 | 0.00 | 0.00 | 66 | 1008.2 |
| 20260505040933 | 67 | 246 | 5.2 | 11.3 | 0.00 | 0.00 | 0.00 | 66 | 1008.1 |
| 20260505040425 | 67 | 248 | 4.3 | 12.2 | 0.00 | 0.00 | 0.00 | 66 | 1008.1 |
| 20260505040050 | 67 | 231 | 4.3 | 12.2 | 0.00 | 0.00 | 0.00 | 65 | 1007.3 |
| 20260505035925 | 67 | 198 | 5.2 | 7.8 | 0.00 | 0.00 | 0.00 | 65 | 1008.1 |
| 20260505035437 | 68 | 217 | 4.3 | 7.8 | 0.00 | 0.00 | 0.00 | 65 | 1008.1 |
| 20260505034929 | 67 | 226 | 5.2 | 7.8 | 0.00 | 0.00 | 0.00 | 66 | 1008.1 |
| 20260505034555 | 67 | 240 | 4.3 | 8.7 | 0.00 | 0.00 | 0.00 | 66 | 1007.3 |
| 20260505034429 | 67 | 225 | 5.2 | 9.6 | 0.00 | 0.00 | 0.00 | 66 | 1008.2 |
| 20260505033940 | 68 | 231 | 5.2 | 9.6 | 0.00 | 0.00 | 0.00 | 65 | 1008.2 |
| 20260505033432 | 68 | 257 | 4.3 | 7.8 | 0.00 | 0.00 | 0.00 | 65 | 1008.3 |
| 20260505033047 | 67 | 236 | 3.5 | 10.4 | 0.00 | 0.00 | 0.00 | 65 | 1007.5 |
| 20260505032928 | 68 | 230 | 4.3 | 10.4 | 0.00 | 0.00 | 0.00 | 65 | 1008.3 |
| 20260505032445 | 68 | 213 | 4.3 | 10.4 | 0.00 | 0.00 | 0.00 | 65 | 1008.3 |
| 20260505031928 | 68 | 251 | 3.5 | 7.8 | 0.00 | 0.00 | 0.00 | 64 | 1008.3 |
| 20260505031541 | 68 | 259 | 3.5 | 7.8 | 0.00 | 0.00 | 0.00 | 64 | 1007.5 |
| 20260505031439 | 68 | 208 | 3.5 | 7.8 | 0.00 | 0.00 | 0.00 | 64 | 1008.3 |
| 20260505030950 | 68 | 236 | 4.3 | 6.1 | 0.00 | 0.00 | 0.00 | 64 | 1008.3 |
| 20260505030431 | 68 | 237 | 3.5 | 8.7 | 0.00 | 0.00 | 0.00 | 65 | 1008.2 |
| 20260505030036 | 68 | 234 | 3.5 | 8.7 | 0.00 | 0.00 | 0.00 | 64 | 1007.3 |
| 20260505025941 | 69 | 233 | 4.3 | 8.7 | 0.00 | 0.00 | 0.00 | 64 | 1008.1 |
| 20260505025423 | 69 | 235 | 4.3 | 7.8 | 0.00 | 0.00 | 0.00 | 64 | 1007.9 |
| 20260505024935 | 69 | 258 | 4.3 | 7.8 | 0.00 | 0.00 | 0.00 | 64 | 1007.9 |
| 20260505024544 | 69 | 236 | 3.5 | 7.0 | 0.00 | 0.00 | 0.00 | 64 | 1007.1 |
| 20260505024445 | 69 | 244 | 4.3 | 8.7 | 0.00 | 0.00 | 0.00 | 64 | 1007.8 |
| 20260505023927 | 69 | 254 | 4.3 | 8.7 | 0.00 | 0.00 | 0.00 | 64 | 1007.9 |
| 20260505023439 | 69 | 212 | 4.3 | 8.7 | 0.00 | 0.00 | 0.00 | 64 | 1007.7 |
| 20260505023106 | 69 | 240 | 3.5 | 7.8 | 0.00 | 0.00 | 0.00 | 63 | 1006.9 |
| 20260505022948 | 69 | 229 | 4.3 | 7.8 | 0.00 | 0.00 | 0.00 | 63 | 1007.6 |
| 20260505022431 | 69 | 240 | 4.3 | 8.7 | 0.00 | 0.00 | 0.00 | 63 | 1007.6 |
| 20260505021922 | 69 | 223 | 4.3 | 9.6 | 0.00 | 0.00 | 0.00 | 63 | 1007.5 |
| 20260505021539 | 69 | 240 | 4.3 | 9.6 | 0.00 | 0.00 | 0.00 | 63 | 1006.6 |
| 20260505021423 | 70 | 181 | 4.3 | 9.6 | 0.00 | 0.00 | 0.00 | 63 | 1007.4 |
| 20260505020935 | 69 | 229 | 5.2 | 8.7 | 0.00 | 0.00 | 0.00 | 63 | 1007.5 |
| 20260505020502 | 69 | 243 | 5.2 | 8.7 | 0.00 | 0.00 | 0.00 | 63 | 1007.5 |
| 20260505020031 | 69 | 209 | 3.5 | 7.0 | 0.00 | 0.00 | 0.00 | 63 | 1006.5 |
| 20260505015931 | 70 | 250 | 4.3 | 7.0 | 0.00 | 0.00 | 0.00 | 63 | 1007.4 |
| 20260505015502 | 70 | 240 | 4.3 | 8.7 | 0.00 | 0.00 | 0.00 | 62 | 1007.4 |
| 20260505014924 | 70 | 239 | 4.3 | 8.7 | 0.00 | 0.00 | 0.00 | 62 | 1007.4 |
| 20260505014512 | 69 | 248 | 3.5 | 7.0 | 0.00 | 0.00 | 0.00 | 62 | 1006.5 |
| 20260505014453 | 70 | 248 | 4.3 | 10.4 | 0.00 | 0.00 | 0.00 | 62 | 1007.5 |
| 20260505013943 | 70 | 233 | 4.3 | 10.4 | 0.00 | 0.00 | 0.00 | 62 | 1007.4 |
| 20260505013433 | 70 | 234 | 3.5 | 8.7 | 0.00 | 0.00 | 0.00 | 62 | 1007.4 |
| 20260505013045 | 70 | 188 | 3.5 | 9.6 | 0.00 | 0.00 | 0.00 | 62 | 1006.4 |
| 20260505012943 | 70 | 124 | 4.3 | 9.6 | 0.00 | 0.00 | 0.00 | 62 | 1007.3 |
| 20260505012425 | 70 | 243 | 4.3 | 9.6 | 0.00 | 0.00 | 0.00 | 61 | 1007.2 |
| 20260505011938 | 70 | 236 | 3.5 | 6.1 | 0.00 | 0.00 | 0.00 | 61 | 1007.2 |
| 20260505011551 | 70 | 217 | 2.6 | 7.8 | 0.00 | 0.00 | 0.00 | 61 | 1006.4 |
| 20260505011448 | 71 | 229 | 4.3 | 7.8 | 0.00 | 0.00 | 0.00 | 61 | 1007.3 |
| 20260505010930 | 71 | 231 | 4.3 | 7.8 | 0.00 | 0.00 | 0.00 | 61 | 1007.2 |
| 20260505010441 | 71 | 252 | 4.3 | 9.6 | 0.00 | 0.00 | 0.00 | 60 | 1007.1 |
| 20260505010037 | 70 | 244 | 3.5 | 9.6 | 0.00 | 0.00 | 0.00 | 61 | 1006.3 |
| 20260505005922 | 71 | 240 | 4.3 | 9.6 | 0.00 | 0.00 | 0.00 | 61 | 1007.2 |
| 20260505005458 | 71 | 240 | 4.3 | 7.8 | 0.00 | 0.00 | 0.00 | 60 | 1007.1 |
| 20260505005009 | 71 | 244 | 3.5 | 6.1 | 0.00 | 0.00 | 0.00 | 61 | 1007.1 |
| 20260505004502 | 71 | 232 | 3.5 | 7.8 | 0.00 | 0.00 | 0.00 | 60 | 1006.3 |
| 20260505004428 | 71 | 252 | 4.3 | 7.8 | 0.00 | 0.00 | 0.00 | 60 | 1007.2 |
| 20260505003940 | 72 | 213 | 3.5 | 10.4 | 0.00 | 0.00 | 0.00 | 60 | 1007.1 |
| 20260505003451 | 72 | 226 | 4.3 | 10.4 | 0.00 | 0.00 | 0.00 | 59 | 1007.1 |
| 20260505003009 | 71 | 211 | 3.5 | 7.0 | 0.00 | 0.00 | 0.00 | 59 | 1006.3 |
| 20260505002931 | 72 | 205 | 3.5 | 7.0 | 0.00 | 0.00 | 0.00 | 59 | 1007.2 |
| 20260505002420 | 72 | 235 | 3.5 | 8.7 | 0.00 | 0.00 | 0.00 | 59 | 1007.2 |
| 20260505001933 | 72 | 238 | 4.3 | 8.7 | 0.00 | 0.00 | 0.00 | 59 | 1007.2 |
| 20260505001601 | 72 | 236 | 3.5 | 7.8 | 0.00 | 0.00 | 0.00 | 59 | 1006.3 |
| 20260505001433 | 72 | 232 | 4.3 | 7.8 | 0.00 | 0.00 | 0.00 | 59 | 1007.3 |
| 20260505000925 | 72 | 259 | 4.3 | 11.3 | 0.00 | 0.00 | 0.00 | 58 | 1007.4 |
| 20260505000428 | 73 | 238 | 4.3 | 9.6 | 0.00 | 0.00 | 0.00 | 58 | 1007.3 |
| 20260505000007 | 72 | 235 | 3.5 | 9.6 | 0.00 | 0.00 | 0.00 | 57 | 1006.5 |
| 20260504235938 | 73 | 236 | 4.3 | 9.6 | 0.00 | 0.00 | 0.00 | 57 | 1007.3 |
| 20260504235429 | 73 | 244 | 5.2 | 8.7 | 0.00 | 0.00 | 0.00 | 56 | 1007.3 |
| 20260504234939 | 73 | 248 | 5.2 | 11.3 | 0.00 | 0.00 | 0.00 | 56 | 1007.3 |
| 20260504234554 | 73 | 244 | 5.2 | 11.3 | 0.00 | 0.00 | 0.00 | 57 | 1006.4 |
| 20260504234436 | 73 | 264 | 6.1 | 11.3 | 0.00 | 0.00 | 0.00 | 56 | 1007.3 |
| 20260504233926 | 73 | 237 | 4.3 | 8.7 | 0.00 | 0.00 | 0.00 | 57 | 1007.3 |
| 20260504233438 | 73 | 245 | 6.1 | 8.7 | 0.00 | 0.00 | 0.00 | 56 | 1007.4 |
| 20260504233111 | 73 | 236 | 4.3 | 7.0 | 0.00 | 0.00 | 0.00 | 56 | 1006.5 |
| 20260504233008 | 74 | 205 | 4.3 | 7.8 | 0.00 | 0.00 | 0.00 | 57 | 1007.4 |
| 20260504232430 | 74 | 228 | 4.3 | 10.4 | 0.00 | 0.00 | 0.00 | 56 | 1007.5 |
| 20260504231941 | 74 | 195 | 5.2 | 10.4 | 0.00 | 0.00 | 0.00 | 55 | 1007.6 |
| 20260504231548 | 73 | 253 | 3.5 | 10.4 | 0.00 | 0.00 | 0.00 | 56 | 1006.8 |
| 20260504231422 | 74 | 236 | 4.3 | 10.4 | 0.00 | 0.00 | 0.00 | 55 | 1007.7 |
| 20260504230933 | 74 | 252 | 6.1 | 10.4 | 0.00 | 0.00 | 0.00 | 55 | 1007.7 |
| 20260504230425 | 74 | 249 | 6.1 | 10.4 | 0.00 | 0.00 | 0.00 | 54 | 1007.8 |
| 20260504230040 | 74 | 232 | 5.2 | 10.4 | 0.00 | 0.00 | 0.00 | 56 | 1007.0 |
| 20260504225955 | 74 | 242 | 5.2 | 10.4 | 0.00 | 0.00 | 0.00 | 55 | 1007.9 |
| 20260504225446 | 74 | 248 | 5.2 | 8.7 | 0.00 | 0.00 | 0.00 | 55 | 1008.0 |
| 20260504224949 | 74 | 241 | 5.2 | 10.4 | 0.00 | 0.00 | 0.00 | 55 | 1008.1 |
| 20260504224501 | 74 | 238 | 6.1 | 10.4 | 0.00 | 0.00 | 0.00 | 54 | 1007.3 |
| 20260504224438 | 75 | 237 | 6.1 | 10.4 | 0.00 | 0.00 | 0.00 | 54 | 1008.2 |
| 20260504223929 | 75 | 236 | 6.1 | 11.3 | 0.00 | 0.00 | 0.00 | 54 | 1008.1 |
| 20260504223432 | 75 | 251 | 5.2 | 11.3 | 0.00 | 0.00 | 0.00 | 54 | 1008.1 |
| 20260504223011 | 74 | 236 | 4.3 | 11.3 | 0.00 | 0.00 | 0.00 | 54 | 1007.3 |
| 20260504222922 | 75 | 251 | 5.2 | 11.3 | 0.00 | 0.00 | 0.00 | 54 | 1008.2 |
| 20260504222450 | 75 | 227 | 5.2 | 13.0 | 0.00 | 0.00 | 0.00 | 54 | 1008.1 |
| 20260504221941 | 75 | 255 | 6.1 | 13.0 | 0.00 | 0.00 | 0.00 | 53 | 1008.2 |
| 20260504221612 | 75 | 241 | 7.0 | 10.4 | 0.00 | 0.00 | 0.00 | 53 | 1007.3 |
| 20260504221422 | 76 | 246 | 6.1 | 10.4 | 0.00 | 0.00 | 0.00 | 52 | 1008.3 |
| 20260504220934 | 76 | 198 | 5.2 | 10.4 | 0.00 | 0.00 | 0.00 | 53 | 1008.3 |
| 20260504220444 | 76 | 242 | 6.1 | 10.4 | 0.00 | 0.00 | 0.00 | 52 | 1008.3 |
| 20260504220011 | 75 | 248 | 5.2 | 11.3 | 0.00 | 0.00 | 0.00 | 53 | 1007.4 |
| 20260504215925 | 76 | 214 | 5.2 | 11.3 | 0.00 | 0.00 | 0.00 | 53 | 1008.3 |
| 20260504215436 | 76 | 154 | 7.8 | 12.2 | 0.00 | 0.00 | 0.00 | 51 | 1008.5 |
| 20260504214938 | 76 | 231 | 6.1 | 12.2 | 0.00 | 0.00 | 0.00 | 52 | 1008.5 |
| 20260504214512 | 75 | 171 | 7.0 | 12.2 | 0.00 | 0.00 | 0.00 | 52 | 1007.7 |
| 20260504214447 | 76 | 241 | 7.0 | 12.2 | 0.00 | 0.00 | 0.00 | 51 | 1008.5 |
| 20260504213937 | 76 | 225 | 7.0 | 11.3 | 0.00 | 0.00 | 0.00 | 50 | 1008.6 |
| 20260504213428 | 76 | 241 | 7.0 | 11.3 | 0.00 | 0.00 | 0.00 | 51 | 1008.5 |
| 20260504213044 | 76 | 239 | 5.2 | 13.0 | 0.00 | 0.00 | 0.00 | 52 | 1007.7 |
| 20260504212937 | 76 | 251 | 6.1 | 13.0 | 0.00 | 0.00 | 0.00 | 51 | 1008.6 |
| 20260504212447 | 77 | 250 | 7.0 | 13.0 | 0.00 | 0.00 | 0.00 | 50 | 1008.7 |
| 20260504211929 | 77 | 236 | 6.1 | 11.3 | 0.00 | 0.00 | 0.00 | 51 | 1008.7 |
| 20260504211526 | 76 | 260 | 5.2 | 12.2 | 0.00 | 0.00 | 0.00 | 51 | 1008.0 |
| 20260504211435 | 77 | 248 | 6.1 | 12.2 | 0.00 | 0.00 | 0.00 | 51 | 1008.8 |
| 20260504210947 | 77 | 238 | 5.2 | 12.2 | 0.00 | 0.00 | 0.00 | 50 | 1008.9 |
| 20260504210429 | 76 | 206 | 7.8 | 14.8 | 0.00 | 0.00 | 0.00 | 49 | 1009.0 |
| 20260504210034 | 76 | 255 | 7.8 | 14.8 | 0.00 | 0.00 | 0.00 | 49 | 1008.2 |
| 20260504205940 | 76 | 231 | 8.7 | 14.8 | 0.00 | 0.00 | 0.00 | 49 | 1009.0 |
| 20260504205423 | 77 | 249 | 7.0 | 14.8 | 0.00 | 0.00 | 0.00 | 50 | 1009.1 |
| 20260504204934 | 77 | 219 | 7.0 | 14.8 | 0.00 | 0.00 | 0.00 | 50 | 1009.0 |
| 20260504204521 | 76 | 251 | 5.2 | 13.0 | 0.00 | 0.00 | 0.00 | 50 | 1008.4 |
| 20260504204423 | 76 | 250 | 5.2 | 11.3 | 0.00 | 0.00 | 0.00 | 50 | 1009.3 |
| 20260504203925 | 77 | 213 | 7.0 | 11.3 | 0.00 | 0.00 | 0.00 | 49 | 1009.3 |
| 20260504203436 | 77 | 227 | 6.1 | 11.3 | 0.00 | 0.00 | 0.00 | 50 | 1009.4 |
| 20260504203029 | 76 | 243 | 6.1 | 15.6 | 0.00 | 0.00 | 0.00 | 51 | 1008.5 |
| 20260504202925 | 77 | 208 | 6.1 | 15.6 | 0.00 | 0.00 | 0.00 | 50 | 1009.4 |
| 20260504202427 | 77 | 218 | 7.8 | 15.6 | 0.00 | 0.00 | 0.00 | 49 | 1009.4 |
| 20260504201939 | 77 | 239 | 5.2 | 11.3 | 0.00 | 0.00 | 0.00 | 51 | 1009.5 |
| 20260504201535 | 76 | 223 | 5.2 | 13.0 | 0.00 | 0.00 | 0.00 | 50 | 1008.7 |
| 20260504201430 | 76 | 227 | 6.1 | 13.0 | 0.00 | 0.00 | 0.00 | 50 | 1009.6 |
| 20260504200940 | 76 | 250 | 7.0 | 13.0 | 0.00 | 0.00 | 0.00 | 51 | 1009.8 |
| 20260504200511 | 76 | 237 | 7.8 | 13.0 | 0.00 | 0.00 | 0.00 | 51 | 1009.8 |
| 20260504200104 | 76 | 237 | 6.1 | 12.2 | 0.00 | 0.00 | 0.00 | 50 | 1009.0 |
| 20260504195931 | 77 | 247 | 6.1 | 11.3 | 0.00 | 0.00 | 0.00 | 51 | 1009.9 |
| 20260504195422 | 77 | 156 | 5.2 | 13.0 | 0.00 | 0.00 | 0.00 | 49 | 1010.0 |
| 20260504194951 | 77 | 247 | 7.8 | 13.9 | 0.00 | 0.00 | 0.00 | 50 | 1010.0 |
| 20260504194506 | 76 | 245 | 7.8 | 13.9 | 0.00 | 0.00 | 0.00 | 50 | 1009.1 |
| 20260504194429 | 77 | 245 | 7.8 | 13.9 | 0.00 | 0.00 | 0.00 | 50 | 1010.0 |
| 20260504193949 | 77 | 233 | 7.0 | 13.9 | 0.00 | 0.00 | 0.00 | 48 | 1010.1 |
| 20260504193431 | 77 | 243 | 6.1 | 11.3 | 0.00 | 0.00 | 0.00 | 49 | 1010.3 |
| 20260504193035 | 77 | 248 | 5.2 | 11.3 | 0.00 | 0.00 | 0.00 | 49 | 1009.5 |
| 20260504192940 | 77 | 236 | 5.2 | 11.3 | 0.00 | 0.00 | 0.00 | 50 | 1010.4 |
| 20260504192422 | 77 | 233 | 5.2 | 13.0 | 0.00 | 0.00 | 0.00 | 51 | 1010.5 |
| 20260504191935 | 76 | 243 | 7.0 | 14.8 | 0.00 | 0.00 | 0.00 | 51 | 1010.5 |
| 20260504191542 | 76 | 230 | 7.0 | 14.8 | 0.00 | 0.00 | 0.00 | 49 | 1009.7 |
| 20260504191444 | 77 | 236 | 7.8 | 14.8 | 0.00 | 0.00 | 0.00 | 49 | 1010.7 |
| 20260504190947 | 77 | 234 | 6.1 | 13.0 | 0.00 | 0.00 | 0.00 | 51 | 1010.6 |
| 20260504190437 | 76 | 245 | 7.0 | 13.9 | 0.00 | 0.00 | 0.00 | 50 | 1010.6 |
| 20260504190028 | 75 | 251 | 7.0 | 13.9 | 0.00 | 0.00 | 0.00 | 51 | 1009.8 |
| 20260504185927 | 76 | 273 | 7.8 | 13.9 | 0.00 | 0.00 | 0.00 | 50 | 1010.6 |
| 20260504185458 | 76 | 226 | 5.2 | 13.9 | 0.00 | 0.00 | 0.00 | 53 | 1010.8 |
| 20260504184929 | 75 | 253 | 8.7 | 13.9 | 0.00 | 0.00 | 0.00 | 50 | 1010.8 |
| 20260504184556 | 75 | 229 | 7.0 | 13.0 | 0.00 | 0.00 | 0.00 | 52 | 1010.0 |
| 20260504184424 | 75 | 239 | 8.7 | 13.0 | 0.00 | 0.00 | 0.00 | 51 | 1011.0 |
| 20260504183935 | 76 | 246 | 7.0 | 12.2 | 0.00 | 0.00 | 0.00 | 53 | 1011.0 |
| 20260504183446 | 75 | 245 | 7.0 | 11.3 | 0.00 | 0.00 | 0.00 | 52 | 1011.1 |
| 20260504183041 | 75 | 234 | 7.8 | 13.9 | 0.00 | 0.00 | 0.00 | 53 | 1010.2 |
| 20260504182936 | 76 | 203 | 7.0 | 13.9 | 0.00 | 0.00 | 0.00 | 51 | 1011.0 |
| 20260504182438 | 75 | 226 | 8.7 | 13.9 | 0.00 | 0.00 | 0.00 | 51 | 1010.8 |
| 20260504181927 | 76 | 231 | 7.0 | 10.4 | 0.00 | 0.00 | 0.00 | 51 | 1011.1 |
| 20260504181529 | 75 | 243 | 5.2 | 10.4 | 0.00 | 0.00 | 0.00 | 52 | 1010.4 |
| 20260504181436 | 75 | 229 | 5.2 | 10.4 | 0.00 | 0.00 | 0.00 | 52 | 1011.1 |
| 20260504180947 | 75 | 281 | 5.2 | 10.4 | 0.00 | 0.00 | 0.00 | 52 | 1011.1 |
| 20260504180449 | 76 | 224 | 6.1 | 10.4 | 0.00 | 0.00 | 0.00 | 51 | 1011.3 |
| 20260504180012 | 75 | 252 | 4.3 | 10.4 | 0.00 | 0.00 | 0.00 | 55 | 1010.6 |
| 20260504175938 | 76 | 245 | 4.3 | 10.4 | 0.00 | 0.00 | 0.00 | 53 | 1011.3 |
| 20260504175421 | 75 | 243 | 6.1 | 11.3 | 0.00 | 0.00 | 0.00 | 53 | 1011.3 |
| 20260504174931 | 75 | 233 | 5.2 | 10.4 | 0.00 | 0.00 | 0.00 | 52 | 1011.4 |
| 20260504174518 | 74 | 240 | 5.2 | 12.2 | 0.00 | 0.00 | 0.00 | 52 | 1010.7 |
| 20260504174421 | 75 | 258 | 5.2 | 12.2 | 0.00 | 0.00 | 0.00 | 53 | 1011.5 |
| 20260504173923 | 75 | 245 | 7.0 | 13.9 | 0.00 | 0.00 | 0.00 | 52 | 1011.5 |
| 20260504173435 | 75 | 249 | 6.1 | 9.6 | 0.00 | 0.00 | 0.00 | 52 | 1011.7 |
| 20260504173025 | 74 | 247 | 5.2 | 10.4 | 0.00 | 0.00 | 0.00 | 52 | 1011.0 |
| 20260504172925 | 74 | 230 | 6.1 | 10.4 | 0.00 | 0.00 | 0.00 | 52 | 1011.8 |
| 20260504172423 | 74 | 253 | 6.1 | 14.8 | 0.00 | 0.00 | 0.00 | 52 | 1011.8 |
| 20260504171935 | 74 | 243 | 7.8 | 14.8 | 0.00 | 0.00 | 0.00 | 52 | 1011.9 |
| 20260504171534 | 73 | 249 | 7.0 | 13.0 | 0.00 | 0.00 | 0.00 | 53 | 1011.1 |
| 20260504171445 | 74 | 252 | 7.0 | 13.0 | 0.00 | 0.00 | 0.00 | 53 | 1012.0 |
| 20260504170932 | 74 | 247 | 8.7 | 13.0 | 0.00 | 0.00 | 0.00 | 53 | 1011.9 |
| 20260504170435 | 74 | 250 | 7.0 | 13.9 | 0.00 | 0.00 | 0.00 | 52 | 1012.0 |
| 20260504160428 | 72 | 223 | 6.1 | 13.0 | 0.00 | 0.00 | 0.00 | 54 | 1012.8 |
| 20260504150957 | 69 | 249 | 7.0 | 8.7 | 0.00 | 0.00 | 0.00 | 64 | 1012.8 |
| 20260504150442 | 68 | 255 | 4.3 | 7.0 | 0.00 | 0.00 | 0.00 | 67 | 1012.8 |
| 20260504140928 | 63 | 264 | 1.7 | 7.0 | 0.00 | 0.00 | 0.00 | 76 | 1013.3 |
| 20260504140440 | 62 | 250 | 3.5 | 7.0 | 0.00 | 0.00 | 0.00 | 76 | 1013.3 |
| 20260504130432 | 57 | 239 | 1.7 | 2.6 | 0.00 | 0.00 | 0.00 | 85 | 1013.2 |
| 20260504110507 | 57 | 251 | 2.6 | 3.5 | 0.00 | 0.00 | 0.00 | 81 | 1012.2 |
| 20260504100431 | 59 | 236 | 2.6 | 4.3 | 0.00 | 0.00 | 0.00 | 77 | 1012.8 |
| 20260504082008 | 61 | 245 | 3.5 | 5.2 | 0.00 | 0.00 | 0.00 | 75 | 1012.9 |
| 20260504081501 | 60 | 244 | 2.6 | 4.3 | 0.00 | 0.00 | 0.00 | 74 | 1012.2 |
| 20260504081428 | 61 | 239 | 2.6 | 4.3 | 0.00 | 0.00 | 0.00 | 74 | 1012.9 |
| 20260504080938 | 61 | 248 | 2.6 | 4.3 | 0.00 | 0.00 | 0.00 | 74 | 1012.9 |
| 20260504080450 | 61 | 252 | 2.6 | 4.3 | 0.00 | 0.00 | 0.00 | 74 | 1013.0 |